{"data":{"norad_id":57768,"epoch":"2026-05-25T03:22:20.584992Z","epoch_age_seconds":76968,"freshness":"FRESH","line1":"1 57768U 23133M   26145.14051603  .00000118  00000+0  94105-4 0  9995","line2":"2 57768  80.9966  29.0972 0006902  74.5909 285.6009 13.85418973137845","mean_motion":13.85418973,"eccentricity":0.0006902,"inclination_deg":80.9966,"raan_deg":29.0972,"arg_perigee_deg":74.5909,"mean_anomaly_deg":285.6009,"bstar":9.4105e-5,"rev_number":13784,"period_min":103.93967659341,"perigee_km":939.67476233127,"apogee_km":949.78324656381,"semimajor_km":7322.8660044475,"source":"CELESTRAK","updated_at":"2026-05-25T13:38:00.239021Z"}}